Location: Ellingshausen
(50.5460°N, 10.4723°E)
Time: 09:18:39
(UTC+00:00)

Cosmos 676 Rocket - Visible Passes

Search period start: 10 April 2026 00:00
Search period end: 20 April 2026 00:00
Orbit: 749 x 780 km, 74.0° (Epoch: 10 April)

Date Brightness Start Highest point End Pass type
(mag) Time Alt. Az. Time Alt. Az. Time Alt. Az.
10 Apr 4.4 00:24:25 10° NNW 00:28:55 63° N 00:28:55 63° N visible
10 Apr 5.9 02:07:38 10° NW 02:09:05 15° WNW 02:09:05 15° WNW visible
10 Apr 6.6 22:05:47 10° N 22:08:09 13° NE 22:10:31 10° ENE visible
10 Apr 4.7 23:46:19 10° NNW 23:51:11 50° NE 23:51:11 50° NE visible
11 Apr 5.5 01:28:46 10° NW 01:31:21 23° WNW 01:31:21 23° WNW visible
11 Apr 5.3 23:08:20 10° N 23:13:08 33° NE 23:13:29 33° ENE visible
12 Apr 5.0 00:50:15 10° NW 00:53:38 34° WNW 00:53:38 34° WNW visible
12 Apr 5.8 22:30:27 10° N 22:34:40 23° NE 22:35:48 22° ENE visible
13 Apr 4.5 00:11:56 10° NNW 00:15:58 52° NW 00:15:58 52° NW visible
13 Apr 6.2 21:52:43 10° N 21:56:03 17° NE 21:58:09 14° ENE visible
13 Apr 4.4 23:33:45 10° NNW 23:38:19 62° NNE 23:38:19 62° NNE visible
14 Apr 5.9 01:16:45 10° NW 01:18:29 16° WNW 01:18:29 16° WNW visible
14 Apr 6.5 21:15:21 10° NNE 21:17:20 12° NE 21:19:19 10° ENE visible
14 Apr 4.7 22:55:40 10° NNW 23:00:41 46° NE 23:00:41 46° NE visible
15 Apr 5.5 00:37:58 10° NW 00:40:52 25° WNW 00:40:52 25° WNW visible
15 Apr 5.3 22:17:41 10° N 22:22:23 31° NE 22:23:05 30° ENE visible
15 Apr 4.9 23:59:30 10° NNW 00:03:16 40° WNW 00:03:16 40° WNW visible
16 Apr 5.8 21:39:50 10° N 21:43:52 21° NE 21:45:30 19° ENE visible
16 Apr 4.3 23:21:13 10° NNW 23:25:41 63° NW 23:25:41 63° NW visible
17 Apr 6.3 01:05:14 10° WNW 01:05:51 11° WNW 01:05:51 11° WNW visible
17 Apr 6.2 21:02:09 10° N 21:05:15 15° NE 21:07:56 11° ENE visible
17 Apr 4.2 22:43:03 10° NNW 22:48:07 64° NE 22:48:07 64° NE visible
18 Apr 5.8 00:25:54 10° NW 00:28:17 19° WNW 00:28:17 19° WNW visible
18 Apr 6.5 20:25:00 10° NNE 20:26:30 11° NNE 20:28:00 10° NE visible
18 Apr 4.8 22:05:01 10° NNW 22:10:02 42° ENE 22:10:34 41° ENE visible
18 Apr 5.2 23:47:12 10° NW 23:50:44 31° WNW 23:50:44 31° WNW visible
19 Apr 5.4 21:27:03 10° N 21:31:37 28° NE 21:33:02 25° ENE visible
19 Apr 4.5 23:08:47 10° NNW 23:13:13 51° WNW 23:13:13 51° WNW visible
